Time,TemperatureF,DewpointF,PressureIn,WindDirection,WindDirectionDegrees,WindSpeedMPH,WindSpeedGustMPH,Humidity,HourlyPrecipIn,Conditions,Clouds,dailyrainin,SoftwareType,DateUTC
2013-02-12 00:00:00,67.0,59.5,26.72,North,0,0.0,0.0,77,0.00,,,0.00,WUHU216HW,2013-02-12 05:00:00,
2013-02-12 00:05:00,67.0,59.5,26.72,North,0,0.0,0.0,77,0.00,,,0.00,WUHU216HW,2013-02-12 05:05:00,
2013-02-12 00:10:00,66.8,59.3,26.73,North,0,0.0,0.0,77,0.00,,,0.00,WUHU216HW,2013-02-12 05:10:00,
2013-02-12 00:15:00,66.4,59.0,26.71,North,0,0.0,0.0,77,0.00,,,0.00,WUHU216HW,2013-02-12 05:15:00,
2013-02-12 00:20:00,66.1,58.6,26.75,North,0,0.0,0.0,77,0.00,,,0.00,WUHU216HW,2013-02-12 05:20:00,
2013-02-12 00:25:00,66.1,58.6,26.74,North,0,0.0,0.0,77,0.00,,,0.00,WUHU216HW,2013-02-12 05:25:00,
2013-02-12 00:30:00,66.1,58.6,26.74,North,0,0.0,0.0,77,0.00,,,0.00,WUHU216HW,2013-02-12 05:30:00,
2013-02-12 00:35:00,65.2,57.8,26.74,North,0,0.0,0.0,77,0.00,,,0.00,WUHU216HW,2013-02-12 05:35:00,
2013-02-12 00:40:00,65.2,57.8,26.74,North,0,0.0,0.0,77,0.00,,,0.00,WUHU216HW,2013-02-12 05:40:00,
2013-02-12 00:45:00,65.2,57.8,26.74,North,0,0.0,0.0,77,0.00,,,0.00,WUHU216HW,2013-02-12 05:45:00,
2013-02-12 00:50:00,65.2,57.8,26.72,North,0,0.0,0.0,77,0.00,,,0.00,WUHU216HW,2013-02-12 05:50:00,
2013-02-12 00:55:00,65.0,58.3,26.73,North,0,0.0,0.0,79,0.00,,,0.00,WUHU216HW,2013-02-12 05:55:00,
2013-02-12 01:00:00,65.2,58.2,26.73,North,0,0.0,0.0,78,0.00,,,0.00,WUHU216HW,2013-02-12 06:00:00,
2013-02-12 01:05:00,65.2,58.2,26.74,North,0,0.0,0.0,78,0.00,,,0.00,WUHU216HW,2013-02-12 06:05:00,
2013-02-12 01:10:00,65.2,58.5,26.74,North,0,0.0,0.0,79,0.00,,,0.00,WUHU216HW,2013-02-12 06:10:00,
2013-02-12 01:15:00,65.2,58.5,26.72,North,0,0.0,0.0,79,0.00,,,0.00,WUHU216HW,2013-02-12 06:15:00,
2013-02-12 01:20:00,65.3,58.7,26.72,North,0,0.0,0.0,79,0.00,,,0.00,WUHU216HW,2013-02-12 06:20:00,
2013-02-12 01:25:00,65.5,58.9,26.71,North,0,0.0,0.0,79,0.00,,,0.00,WUHU216HW,2013-02-12 06:25:00,
2013-02-12 01:30:00,65.9,59.2,26.70,North,0,0.0,0.0,79,0.00,,,0.00,WUHU216HW,2013-02-12 06:30:00,
2013-02-12 01:35:00,65.9,59.6,26.69,North,0,0.0,0.0,80,0.00,,,0.00,WUHU216HW,2013-02-12 06:35:00,
2013-02-12 01:40:00,65.9,59.6,26.71,North,0,0.0,0.0,80,0.00,,,0.00,WUHU216HW,2013-02-12 06:40:00,
2013-02-12 01:45:00,65.9,59.6,26.74,North,0,0.0,0.0,80,0.00,,,0.00,WUHU216HW,2013-02-12 06:45:00,
2013-02-12 01:50:00,65.9,59.2,26.75,North,0,0.0,0.0,79,0.00,,,0.00,WUHU216HW,2013-02-12 06:50:00,
2013-02-12 01:55:00,65.9,59.2,26.76,North,0,0.0,0.0,79,0.00,,,0.00,WUHU216HW,2013-02-12 06:55:00,
2013-02-12 02:00:00,66.1,59.4,26.76,North,0,0.0,0.0,79,0.00,,,0.00,WUHU216HW,2013-02-12 07:00:00,
2013-02-12 02:05:00,65.9,59.2,26.74,North,0,0.0,0.0,79,0.00,,,0.00,WUHU216HW,2013-02-12 07:05:00,
2013-02-12 02:10:00,65.9,59.2,26.74,North,0,0.0,0.0,79,0.00,,,0.00,WUHU216HW,2013-02-12 07:10:00,
2013-02-12 02:15:00,65.9,59.2,26.74,North,0,0.0,0.0,79,0.00,,,0.00,WUHU216HW,2013-02-12 07:15:00,
2013-02-12 02:20:00,65.9,59.2,26.72,North,0,0.0,0.0,79,0.00,,,0.00,WUHU216HW,2013-02-12 07:20:00,
2013-02-12 02:25:00,65.9,59.2,26.72,North,0,0.0,0.0,79,0.00,,,0.00,WUHU216HW,2013-02-12 07:25:00,
2013-02-12 02:30:00,65.9,59.2,26.71,North,0,0.0,0.0,79,0.00,,,0.00,WUHU216HW,2013-02-12 07:30:00,
2013-02-12 02:35:00,65.9,59.2,26.71,North,0,0.0,0.0,79,0.00,,,0.00,WUHU216HW,2013-02-12 07:35:00,
2013-02-12 02:40:00,65.5,58.9,26.71,North,0,0.0,0.0,79,0.00,,,0.00,WUHU216HW,2013-02-12 07:40:00,
2013-02-12 02:45:00,65.5,59.2,26.73,North,0,0.0,0.0,80,0.00,,,0.00,WUHU216HW,2013-02-12 07:45:00,
2013-02-12 02:50:00,65.3,59.0,26.72,North,0,0.0,0.0,80,0.00,,,0.00,WUHU216HW,2013-02-12 07:50:00,
2013-02-12 02:55:00,65.3,59.0,26.72,North,0,0.0,0.0,80,0.00,,,0.00,WUHU216HW,2013-02-12 07:55:00,
2013-02-12 03:00:00,65.2,58.9,26.70,North,0,0.0,0.0,80,0.00,,,0.00,WUHU216HW,2013-02-12 08:00:00,
2013-02-12 03:05:00,65.2,58.9,26.70,North,0,0.0,0.0,80,0.00,,,0.00,WUHU216HW,2013-02-12 08:05:00,
2013-02-12 03:10:00,65.0,58.7,26.73,North,0,0.0,0.0,80,0.00,,,0.00,WUHU216HW,2013-02-12 08:10:00,
2013-02-12 03:15:00,64.8,58.5,26.73,North,0,0.0,0.0,80,0.00,,,0.00,WUHU216HW,2013-02-12 08:15:00,
2013-02-12 03:20:00,64.8,58.5,26.73,North,0,0.0,0.0,80,0.00,,,0.00,WUHU216HW,2013-02-12 08:20:00,
2013-02-12 03:25:00,64.8,58.5,26.71,North,0,0.0,0.0,80,0.00,,,0.00,WUHU216HW,2013-02-12 08:25:00,
2013-02-12 03:30:00,64.8,58.5,26.72,North,0,0.0,0.0,80,0.00,,,0.00,WUHU216HW,2013-02-12 08:30:00,
2013-02-12 03:35:00,65.0,58.7,26.71,North,0,0.0,0.0,80,0.00,,,0.00,WUHU216HW,2013-02-12 08:35:00,
2013-02-12 03:40:00,65.0,58.7,26.71,North,0,0.0,0.0,80,0.00,,,0.00,WUHU216HW,2013-02-12 08:40:00,
2013-02-12 03:45:00,64.8,58.5,26.70,North,0,0.0,0.0,80,0.00,,,0.00,WUHU216HW,2013-02-12 08:45:00,
2013-02-12 03:50:00,64.8,58.5,26.69,North,0,0.0,0.0,80,0.00,,,0.00,WUHU216HW,2013-02-12 08:50:00,
2013-02-12 03:55:00,64.8,58.5,26.69,North,0,0.0,0.0,80,0.00,,,0.00,WUHU216HW,2013-02-12 08:55:00,
2013-02-12 04:00:00,64.8,58.5,26.69,North,0,0.0,0.0,80,0.00,,,0.00,WUHU216HW,2013-02-12 09:00:00,
2013-02-12 04:05:00,64.4,58.1,26.69,North,0,0.0,0.0,80,0.00,,,0.00,WUHU216HW,2013-02-12 09:05:00,
2013-02-12 04:10:00,64.4,58.1,26.67,North,0,0.0,0.0,80,0.00,,,0.00,WUHU216HW,2013-02-12 09:10:00,
2013-02-12 04:15:00,64.4,58.1,26.68,North,0,0.0,0.0,80,0.00,,,0.00,WUHU216HW,2013-02-12 09:15:00,
2013-02-12 04:20:00,64.3,58.0,26.68,North,0,0.0,0.0,80,0.00,,,0.00,WUHU216HW,2013-02-12 09:20:00,
2013-02-12 04:25:00,64.1,57.4,26.68,North,0,0.0,0.0,79,0.00,,,0.00,WUHU216HW,2013-02-12 09:25:00,
2013-02-12 04:30:00,63.9,57.2,26.67,North,0,0.0,0.0,79,0.00,,,0.00,WUHU216HW,2013-02-12 09:30:00,
2013-02-12 04:35:00,63.9,57.6,26.66,North,0,0.0,0.0,80,0.00,,,0.00,WUHU216HW,2013-02-12 09:35:00,
2013-02-12 04:40:00,63.7,57.4,26.66,North,0,0.0,0.0,80,0.00,,,0.00,WUHU216HW,2013-02-12 09:40:00,
2013-02-12 04:45:00,63.7,57.1,26.68,North,0,0.0,0.0,79,0.00,,,0.00,WUHU216HW,2013-02-12 09:45:00,
2013-02-12 04:50:00,63.9,57.2,26.68,North,0,0.0,0.0,79,0.00,,,0.00,WUHU216HW,2013-02-12 09:50:00,
2013-02-12 04:55:00,63.9,57.2,26.64,North,0,0.0,0.0,79,0.00,,,0.00,WUHU216HW,2013-02-12 09:55:00,
2013-02-12 05:00:00,64.1,57.4,26.63,North,0,0.0,0.0,79,0.00,,,0.00,WUHU216HW,2013-02-12 10:00:00,
2013-02-12 05:05:00,63.9,57.6,26.63,North,0,0.0,0.0,80,0.00,,,0.00,WUHU216HW,2013-02-12 10:05:00,
2013-02-12 05:10:00,63.7,57.4,26.63,North,0,0.0,0.0,80,0.00,,,0.00,WUHU216HW,2013-02-12 10:10:00,
2013-02-12 05:15:00,63.5,57.2,26.60,North,0,0.0,0.0,80,0.00,,,0.00,WUHU216HW,2013-02-12 10:15:00,
2013-02-12 05:20:00,63.7,57.4,26.63,North,0,0.0,0.0,80,0.00,,,0.00,WUHU216HW,2013-02-12 10:20:00,
2013-02-12 05:25:00,63.7,57.1,26.63,North,0,0.0,0.0,79,0.00,,,0.00,WUHU216HW,2013-02-12 10:25:00,
2013-02-12 05:30:00,63.9,57.2,26.63,North,0,0.0,0.0,79,0.00,,,0.00,WUHU216HW,2013-02-12 10:30:00,
2013-02-12 05:35:00,63.9,57.6,26.63,North,0,0.0,0.0,80,0.00,,,0.00,WUHU216HW,2013-02-12 10:35:00,
2013-02-12 05:40:00,63.7,57.8,26.61,North,0,0.0,0.0,81,0.00,,,0.00,WUHU216HW,2013-02-12 10:40:00,
2013-02-12 05:45:00,63.7,57.8,26.60,North,0,0.0,0.0,81,0.00,,,0.00,WUHU216HW,2013-02-12 10:45:00,
2013-02-12 05:50:00,63.7,57.8,26.55,North,0,0.0,0.0,81,0.00,,,0.00,WUHU216HW,2013-02-12 10:50:00,
2013-02-12 05:55:00,63.7,57.8,26.53,North,0,0.0,0.0,81,0.00,,,0.00,WUHU216HW,2013-02-12 10:55:00,
2013-02-12 06:00:00,63.9,57.6,26.45,North,0,0.0,0.0,80,0.00,,,0.00,WUHU216HW,2013-02-12 11:00:00,
2013-02-12 06:05:00,63.9,57.6,26.18,North,0,0.0,0.0,80,0.00,,,0.00,WUHU216HW,2013-02-12 11:05:00,
2013-02-12 06:10:00,63.9,57.6,26.18,North,0,0.0,0.0,80,0.00,,,0.00,WUHU216HW,2013-02-12 11:10:00,
2013-02-12 06:15:00,63.7,57.4,26.00,North,0,0.0,0.0,80,0.00,,,0.00,WUHU216HW,2013-02-12 11:15:00,
2013-02-12 06:20:00,63.7,57.8,25.98,North,0,0.0,0.0,81,0.00,,,0.00,WUHU216HW,2013-02-12 11:20:00,
2013-02-12 06:25:00,63.7,57.8,28.19,North,0,0.0,0.0,81,0.00,,,0.00,WUHU216HW,2013-02-12 11:25:00,
2013-02-12 06:30:00,63.7,57.8,25.80,North,0,0.0,0.0,81,0.00,,,0.00,WUHU216HW,2013-02-12 11:30:00,
2013-02-12 06:35:00,63.5,58.0,25.92,North,0,0.0,0.0,82,0.00,,,0.00,WUHU216HW,2013-02-12 11:35:00,
2013-02-12 06:40:00,63.5,57.6,25.91,North,0,0.0,0.0,81,0.00,,,0.00,WUHU216HW,2013-02-12 11:40:00,
2013-02-12 06:45:00,63.7,57.8,26.00,North,0,0.0,0.0,81,0.00,,,0.00,WUHU216HW,2013-02-12 11:45:00,
2013-02-12 06:50:00,63.9,58.0,26.03,North,0,0.0,0.0,81,0.00,,,0.00,WUHU216HW,2013-02-12 11:50:00,
2013-02-12 06:55:00,64.1,58.2,25.47,North,0,0.0,0.0,81,0.00,,,0.00,WUHU216HW,2013-02-12 11:55:00,
2013-02-12 07:00:00,64.1,58.5,25.47,North,0,0.0,0.0,82,0.00,,,0.00,WUHU216HW,2013-02-12 12:00:00,
2013-02-12 07:05:00,64.4,58.9,25.42,North,0,0.0,0.0,82,0.00,,,0.00,WUHU216HW,2013-02-12 12:05:00,
2013-02-12 07:10:00,64.6,59.3,25.42,North,0,0.0,0.0,83,0.00,,,0.00,WUHU216HW,2013-02-12 12:10:00,
2013-02-12 07:15:00,64.6,59.3,25.45,North,0,0.0,0.0,83,0.00,,,0.00,WUHU216HW,2013-02-12 12:15:00,
2013-02-12 07:20:00,64.8,59.9,25.45,North,0,0.0,0.0,84,0.00,,,0.00,WUHU216HW,2013-02-12 12:20:00,
2013-02-12 07:25:00,64.8,59.9,25.46,North,0,0.0,0.0,84,0.00,,,0.00,WUHU216HW,2013-02-12 12:25:00,
2013-02-12 07:30:00,64.8,59.9,25.47,North,0,0.0,0.0,84,0.00,,,0.00,WUHU216HW,2013-02-12 12:30:00,
2013-02-12 07:35:00,64.8,59.9,25.50,North,0,0.0,0.0,84,0.00,,,0.00,WUHU216HW,2013-02-12 12:35:00,
2013-02-12 07:40:00,64.8,59.9,25.50,North,0,0.0,0.0,84,0.00,,,0.00,WUHU216HW,2013-02-12 12:40:00,
2013-02-12 08:40:00,65.9,61.6,25.52,North,0,0.0,0.0,86,0.00,,,0.00,WUHU216HW,2013-02-12 13:40:00,
2013-02-12 08:45:00,66.1,61.8,25.54,North,0,0.0,0.0,86,0.00,,,0.00,WUHU216HW,2013-02-12 13:45:00,
2013-02-12 08:50:00,66.2,61.9,25.54,North,0,0.0,0.0,86,0.00,,,0.00,WUHU216HW,2013-02-12 13:50:00,
2013-02-12 08:55:00,66.4,62.1,25.58,North,0,0.0,0.0,86,0.00,,,0.00,WUHU216HW,2013-02-12 13:55:00,
2013-02-12 09:00:00,66.6,62.3,25.57,North,0,0.0,0.0,86,0.00,,,0.00,WUHU216HW,2013-02-12 14:00:00,
2013-02-12 09:05:00,66.6,62.3,25.56,North,0,0.0,0.0,86,0.00,,,0.00,WUHU216HW,2013-02-12 14:05:00,
2013-02-12 09:09:00,66.6,62.3,25.55,North,0,0.0,0.0,86,0.00,,,0.00,WUHU216HW,2013-02-12 14:09:00,
2013-02-12 09:15:00,66.8,62.5,25.50,North,0,0.0,0.0,86,0.00,,,0.00,WUHU216HW,2013-02-12 14:15:00,
2013-02-12 09:20:00,66.8,62.5,25.24,North,0,0.0,0.0,86,0.00,,,0.00,WUHU216HW,2013-02-12 14:20:00,
2013-02-12 09:25:00,67.0,62.7,25.29,North,0,0.0,0.0,86,0.00,,,0.00,WUHU216HW,2013-02-12 14:25:00,
2013-02-12 09:30:00,67.1,62.8,25.34,North,0,0.0,0.0,86,0.00,,,0.00,WUHU216HW,2013-02-12 14:30:00,
2013-02-12 09:35:00,67.1,62.8,25.32,North,0,0.0,0.0,86,0.00,,,0.00,WUHU216HW,2013-02-12 14:35:00,
2013-02-12 09:40:00,67.3,63.0,25.27,North,0,0.0,0.0,86,0.00,,,0.00,WUHU216HW,2013-02-12 14:40:00,
2013-02-12 09:44:00,67.5,63.2,25.31,North,0,0.0,0.0,86,0.00,,,0.00,WUHU216HW,2013-02-12 14:44:00,
2013-02-12 09:49:00,67.5,62.8,25.33,North,0,0.0,0.0,85,0.00,,,0.00,WUHU216HW,2013-02-12 14:49:00,
2013-02-12 09:54:00,67.7,63.0,25.32,North,0,0.0,0.0,85,0.00,,,0.00,WUHU216HW,2013-02-12 14:54:00,
2013-02-12 09:59:00,67.9,63.2,25.28,North,0,0.0,0.0,85,0.00,,,0.00,WUHU216HW,2013-02-12 14:59:00,
2013-02-12 10:04:00,68.0,63.4,25.24,North,0,0.0,0.0,85,0.00,,,0.00,WUHU216HW,2013-02-12 15:04:00,
2013-02-12 10:09:00,68.4,63.4,25.24,North,0,0.0,0.0,84,0.00,,,0.00,WUHU216HW,2013-02-12 15:09:00,
2013-02-12 10:14:00,68.6,63.5,24.97,North,0,0.0,0.0,84,0.00,,,0.00,WUHU216HW,2013-02-12 15:14:00,
2013-02-12 10:19:00,68.6,63.5,24.91,North,0,0.0,0.0,84,0.00,,,0.00,WUHU216HW,2013-02-12 15:19:00,
2013-02-12 10:24:00,68.8,63.7,24.98,North,0,0.0,0.0,84,0.00,,,0.00,WUHU216HW,2013-02-12 15:24:00,
2013-02-12 10:29:00,68.8,63.4,24.96,North,0,0.0,0.0,83,0.00,,,0.00,WUHU216HW,2013-02-12 15:29:00,
2013-02-12 10:34:00,68.9,63.5,24.95,North,0,0.0,0.0,83,0.00,,,0.00,WUHU216HW,2013-02-12 15:34:00,
2013-02-12 10:39:00,69.1,63.7,24.95,North,0,0.0,0.0,83,0.00,,,0.00,WUHU216HW,2013-02-12 15:39:00,
2013-02-12 10:44:00,69.5,63.7,24.99,North,0,0.0,0.0,82,0.00,,,0.00,WUHU216HW,2013-02-12 15:44:00,
2013-02-12 10:49:00,70.0,64.3,24.97,North,0,0.0,0.0,82,0.00,,,0.00,WUHU216HW,2013-02-12 15:49:00,
2013-02-12 10:54:00,70.6,64.5,24.94,North,0,0.0,0.0,81,0.00,,,0.00,WUHU216HW,2013-02-12 15:54:00,
2013-02-12 10:59:00,71.3,64.8,24.96,North,0,0.0,0.0,80,0.00,,,0.00,WUHU216HW,2013-02-12 15:59:00,
2013-02-12 11:05:00,71.3,64.8,25.02,North,0,0.0,0.0,80,0.00,,,0.00,WUHU216HW,2013-02-12 16:05:00,
2013-02-12 11:10:00,71.3,64.5,24.99,North,0,0.0,0.0,79,0.00,,,0.00,WUHU216HW,2013-02-12 16:10:00,
2013-02-12 11:15:00,71.5,64.6,24.91,North,0,0.0,0.0,79,0.00,,,0.00,WUHU216HW,2013-02-12 16:15:00,
2013-02-12 11:20:00,72.4,65.2,24.93,North,0,0.0,0.0,78,0.00,,,0.00,WUHU216HW,2013-02-12 16:20:00,
2013-02-12 11:25:00,72.7,65.5,24.91,North,0,0.0,0.0,78,0.00,,,0.00,WUHU216HW,2013-02-12 16:25:00,
2013-02-12 11:30:00,73.6,66.4,24.90,North,0,0.0,0.0,78,0.00,,,0.00,WUHU216HW,2013-02-12 16:30:00,
2013-02-12 11:35:00,75.1,67.0,24.93,North,0,0.0,0.0,76,0.00,,,0.00,WUHU216HW,2013-02-12 16:35:00,
2013-02-12 11:40:00,75.4,67.0,24.94,North,0,0.0,0.0,75,0.00,,,0.00,WUHU216HW,2013-02-12 16:40:00,
2013-02-12 11:45:00,75.8,66.9,24.97,North,0,0.0,0.0,74,0.00,,,0.00,WUHU216HW,2013-02-12 16:45:00,
2013-02-12 11:50:00,76.5,67.2,24.95,North,0,0.0,0.0,73,0.00,,,0.00,WUHU216HW,2013-02-12 16:50:00,
2013-02-12 11:55:00,76.1,66.5,24.99,North,0,0.0,0.0,72,0.00,,,0.00,WUHU216HW,2013-02-12 16:55:00,
2013-02-12 12:00:00,75.2,66.0,24.99,North,0,0.0,0.0,73,0.00,,,0.00,WUHU216HW,2013-02-12 17:00:00,
2013-02-12 12:05:00,75.6,66.3,24.97,North,0,0.0,0.0,73,0.00,,,0.00,WUHU216HW,2013-02-12 17:05:00,
2013-02-12 12:10:00,76.1,66.9,24.88,North,0,0.0,0.0,73,0.00,,,0.00,WUHU216HW,2013-02-12 17:10:00,
2013-02-12 12:15:00,77.2,67.1,24.72,North,0,0.0,0.0,71,0.00,,,0.00,WUHU216HW,2013-02-12 17:15:00,
2013-02-12 12:20:00,77.6,67.1,27.33,North,0,0.0,0.0,70,0.00,,,0.00,WUHU216HW,2013-02-12 17:20:00,
2013-02-12 12:25:00,77.2,67.1,30.04,North,0,0.0,0.0,71,0.00,,,0.00,WUHU216HW,2013-02-12 17:25:00,
2013-02-12 12:30:00,77.0,67.0,30.03,North,0,0.0,0.0,71,0.00,,,0.00,WUHU216HW,2013-02-12 17:30:00,
2013-02-12 12:35:00,77.0,67.0,30.02,North,0,0.0,0.0,71,0.00,,,0.00,WUHU216HW,2013-02-12 17:35:00,
2013-02-12 12:40:00,77.2,67.1,30.01,North,0,0.0,0.0,71,0.00,,,0.00,WUHU216HW,2013-02-12 17:40:00,
2013-02-12 12:45:00,76.7,66.6,30.00,North,0,0.0,0.0,71,0.00,,,0.00,WUHU216HW,2013-02-12 17:45:00,
2013-02-12 12:50:00,76.1,66.1,30.00,North,0,0.0,0.0,71,0.00,,,0.00,WUHU216HW,2013-02-12 17:50:00,
2013-02-12 12:55:00,77.2,67.1,29.99,North,0,0.0,0.0,71,0.00,,,0.00,WUHU216HW,2013-02-12 17:55:00,
2013-02-12 13:00:00,77.9,67.4,29.97,North,0,0.0,0.0,70,0.00,,,0.00,WUHU216HW,2013-02-12 18:00:00,
2013-02-12 13:05:00,78.1,67.2,29.95,North,0,0.0,0.0,69,0.00,,,0.00,WUHU216HW,2013-02-12 18:05:00,
2013-02-12 13:10:00,78.3,67.3,29.94,North,0,0.0,0.0,69,0.00,,,0.00,WUHU216HW,2013-02-12 18:10:00,
2013-02-12 13:15:00,78.7,67.6,29.92,North,0,0.0,0.0,69,0.00,,,0.00,WUHU216HW,2013-02-12 18:15:00,
2013-02-12 13:20:00,78.7,67.2,29.90,North,0,0.0,0.0,68,0.00,,,0.00,WUHU216HW,2013-02-12 18:20:00,
2013-02-12 13:25:00,79.2,67.7,29.89,North,0,0.0,0.0,68,0.00,,,0.00,WUHU216HW,2013-02-12 18:25:00,
2013-02-12 13:30:00,80.6,68.7,29.88,North,0,0.0,0.0,67,0.00,,,0.00,WUHU216HW,2013-02-12 18:30:00,
2013-02-12 13:35:00,81.2,68.7,29.85,North,0,0.0,0.0,66,0.00,,,0.00,WUHU216HW,2013-02-12 18:35:00,
2013-02-12 13:40:00,81.2,68.2,29.80,North,0,0.0,0.0,65,0.00,,,0.00,WUHU216HW,2013-02-12 18:40:00,
2013-02-12 13:45:00,81.5,68.6,29.76,North,0,0.0,0.0,65,0.00,,,0.00,WUHU216HW,2013-02-12 18:45:00,
2013-02-12 13:50:00,81.7,68.3,29.72,North,0,0.0,0.0,64,0.00,,,0.00,WUHU216HW,2013-02-12 18:50:00,
2013-02-12 13:55:00,81.9,68.1,29.53,North,0,0.0,0.0,63,0.00,,,0.00,WUHU216HW,2013-02-12 18:55:00,
2013-02-12 14:00:00,81.5,67.7,29.34,North,0,0.0,0.0,63,0.00,,,0.00,WUHU216HW,2013-02-12 19:00:00,
2013-02-12 14:05:00,81.4,67.5,29.10,North,0,0.0,0.0,63,0.00,,,0.00,WUHU216HW,2013-02-12 19:05:00,
2013-02-12 14:10:00,81.4,68.0,28.81,North,0,0.0,0.0,64,0.00,,,0.00,WUHU216HW,2013-02-12 19:10:00,
2013-02-12 14:15:00,81.7,67.9,28.07,North,0,0.0,0.0,63,0.00,,,0.00,WUHU216HW,2013-02-12 19:15:00,
2013-02-12 14:20:00,81.7,67.9,26.80,North,0,0.0,0.0,63,0.00,,,0.00,WUHU216HW,2013-02-12 19:20:00,
2013-02-12 14:25:00,83.3,68.9,26.78,North,0,0.0,0.0,62,0.00,,,0.00,WUHU216HW,2013-02-12 19:25:00,
2013-02-12 14:30:00,83.3,68.5,26.69,North,0,0.0,0.0,61,0.00,,,0.00,WUHU216HW,2013-02-12 19:30:00,
2013-02-12 14:35:00,83.2,68.3,26.64,North,0,0.0,0.0,61,0.00,,,0.00,WUHU216HW,2013-02-12 19:35:00,
2013-02-12 14:40:00,83.5,68.7,26.58,North,0,0.0,0.0,61,0.00,,,0.00,WUHU216HW,2013-02-12 19:40:00,
2013-02-12 14:45:00,83.2,68.3,26.47,North,0,0.0,0.0,61,0.00,,,0.00,WUHU216HW,2013-02-12 19:45:00,
2013-02-12 14:50:00,83.9,69.0,26.04,North,0,0.0,0.0,61,0.00,,,0.00,WUHU216HW,2013-02-12 19:50:00,
2013-02-12 14:55:00,83.9,69.0,27.41,North,0,0.0,0.0,61,0.00,,,0.00,WUHU216HW,2013-02-12 19:55:00,
2013-02-12 15:00:00,84.1,68.2,27.30,North,0,0.0,0.0,59,0.00,,,0.00,WUHU216HW,2013-02-12 20:00:00,
2013-02-12 15:05:00,84.6,69.4,27.33,North,0,0.0,0.0,60,0.00,,,0.00,WUHU216HW,2013-02-12 20:05:00,
2013-02-12 15:10:00,85.1,68.7,26.92,North,0,0.0,0.0,58,0.00,,,0.00,WUHU216HW,2013-02-12 20:10:00,
2013-02-12 15:15:00,85.0,68.6,26.24,North,0,0.0,0.0,58,0.00,,,0.00,WUHU216HW,2013-02-12 20:15:00,
2013-02-12 15:20:00,86.6,69.0,26.16,North,0,0.0,0.0,56,0.00,,,0.00,WUHU216HW,2013-02-12 20:20:00,
2013-02-12 15:25:00,85.7,68.7,26.30,North,0,0.0,0.0,57,0.00,,,0.00,WUHU216HW,2013-02-12 20:25:00,
2013-02-12 15:30:00,85.0,68.1,26.27,North,0,0.0,0.0,57,0.00,,,0.00,WUHU216HW,2013-02-12 20:30:00,
2013-02-12 15:35:00,83.3,66.5,26.40,North,0,0.0,0.0,57,0.00,,,0.00,WUHU216HW,2013-02-12 20:35:00,
2013-02-12 15:40:00,82.3,66.0,26.35,North,0,0.0,0.0,58,0.00,,,0.00,WUHU216HW,2013-02-12 20:40:00,
2013-02-12 15:45:00,81.0,65.9,26.69,North,0,0.0,0.0,60,0.00,,,0.00,WUHU216HW,2013-02-12 20:45:00,
2013-02-12 15:50:00,80.5,66.1,26.53,North,0,0.0,0.0,61,0.00,,,0.00,WUHU216HW,2013-02-12 20:50:00,
2013-02-12 15:55:00,79.2,65.1,26.70,North,0,0.0,0.0,62,0.00,,,0.00,WUHU216HW,2013-02-12 20:55:00,
2013-02-12 16:00:00,78.3,64.3,30.76,North,0,0.0,0.0,62,0.00,,,0.00,WUHU216HW,2013-02-12 21:00:00,
2013-02-12 16:05:00,77.0,63.5,30.76,North,0,0.0,0.0,63,0.00,,,0.00,WUHU216HW,2013-02-12 21:05:00,
2013-02-12 16:10:00,76.0,62.9,30.76,North,0,0.0,0.0,64,0.00,,,0.00,WUHU216HW,2013-02-12 21:10:00,
2013-02-12 16:15:00,74.5,62.4,30.75,North,0,0.0,0.0,66,0.00,,,0.00,WUHU216HW,2013-02-12 21:15:00,
2013-02-12 16:20:00,73.8,62.7,30.74,North,0,0.0,0.0,68,0.00,,,0.00,WUHU216HW,2013-02-12 21:20:00,
2013-02-12 16:25:00,73.6,62.5,30.73,North,0,0.0,0.0,68,0.00,,,0.00,WUHU216HW,2013-02-12 21:25:00,
2013-02-12 16:30:00,73.6,63.4,30.72,North,0,0.0,0.0,70,0.00,,,0.00,WUHU216HW,2013-02-12 21:30:00,
2013-02-12 16:35:00,74.3,64.0,30.71,North,0,0.0,0.0,70,0.00,,,0.00,WUHU216HW,2013-02-12 21:35:00,
2013-02-12 16:40:00,74.9,63.6,30.70,North,0,0.0,0.0,68,0.00,,,0.00,WUHU216HW,2013-02-12 21:40:00,
2013-02-12 16:45:00,74.3,63.1,30.69,North,0,0.0,0.0,68,0.00,,,0.00,WUHU216HW,2013-02-12 21:45:00,
2013-02-12 16:50:00,74.7,63.9,30.67,North,0,0.0,0.0,69,0.00,,,0.00,WUHU216HW,2013-02-12 21:50:00,
2013-02-12 16:55:00,74.3,63.5,30.66,North,0,0.0,0.0,69,0.00,,,0.00,WUHU216HW,2013-02-12 21:55:00,
2013-02-12 17:00:00,73.1,62.8,30.65,North,0,0.0,0.0,70,0.00,,,0.00,WUHU216HW,2013-02-12 22:00:00,
2013-02-12 17:05:00,72.5,62.6,30.64,North,0,0.0,0.0,71,0.00,,,0.00,WUHU216HW,2013-02-12 22:05:00,
2013-02-12 17:10:00,72.2,62.3,30.62,North,0,0.0,0.0,71,0.00,,,0.00,WUHU216HW,2013-02-12 22:10:00,
2013-02-12 17:15:00,71.6,61.7,30.60,North,0,0.0,0.0,71,0.00,,,0.00,WUHU216HW,2013-02-12 22:15:00,
2013-02-12 17:20:00,70.9,61.4,30.58,North,0,0.0,0.0,72,0.00,,,0.00,WUHU216HW,2013-02-12 22:20:00,
2013-02-12 17:25:00,71.1,61.6,30.55,North,0,0.0,0.0,72,0.00,,,0.00,WUHU216HW,2013-02-12 22:25:00,
2013-02-12 17:30:00,70.9,61.4,30.51,North,0,0.0,0.0,72,0.00,,,0.00,WUHU216HW,2013-02-12 22:30:00,
2013-02-12 17:35:00,70.4,61.3,30.43,North,0,0.0,0.0,73,0.00,,,0.00,WUHU216HW,2013-02-12 22:35:00,
2013-02-12 17:40:00,70.0,61.3,30.21,North,0,0.0,0.0,74,0.00,,,0.00,WUHU216HW,2013-02-12 22:40:00,
2013-02-12 17:45:00,70.0,61.3,29.80,North,0,0.0,0.0,74,0.00,,,0.00,WUHU216HW,2013-02-12 22:45:00,
2013-02-12 17:50:00,69.8,61.1,29.41,North,0,0.0,0.0,74,0.00,,,0.00,WUHU216HW,2013-02-12 22:50:00,
2013-02-12 17:55:00,69.5,60.8,29.11,North,0,0.0,0.0,74,0.00,,,0.00,WUHU216HW,2013-02-12 22:55:00,
2013-02-12 18:00:00,69.3,60.6,26.99,North,0,0.0,0.0,74,0.00,,,0.00,WUHU216HW,2013-02-12 23:00:00,
2013-02-12 18:05:00,69.3,60.6,26.86,North,0,0.0,0.0,74,0.00,,,0.00,WUHU216HW,2013-02-12 23:05:00,
2013-02-12 18:10:00,69.1,60.5,27.13,North,0,0.0,0.0,74,0.00,,,0.00,WUHU216HW,2013-02-12 23:10:00,
2013-02-12 18:15:00,68.6,59.9,27.21,North,0,0.0,0.0,74,0.00,,,0.00,WUHU216HW,2013-02-12 23:15:00,
2013-02-12 18:20:00,68.4,59.8,27.24,North,0,0.0,0.0,74,0.00,,,0.00,WUHU216HW,2013-02-12 23:20:00,
2013-02-12 18:25:00,68.2,60.0,27.28,North,0,0.0,0.0,75,0.00,,,0.00,WUHU216HW,2013-02-12 23:25:00,
2013-02-12 18:30:00,68.0,59.9,27.30,North,0,0.0,0.0,75,0.00,,,0.00,WUHU216HW,2013-02-12 23:30:00,
2013-02-12 18:35:00,67.5,59.3,27.31,North,0,0.0,0.0,75,0.00,,,0.00,WUHU216HW,2013-02-12 23:35:00,
2013-02-12 18:40:00,67.3,59.5,27.28,North,0,0.0,0.0,76,0.00,,,0.00,WUHU216HW,2013-02-12 23:40:00,
2013-02-12 18:45:00,67.3,59.5,27.27,North,0,0.0,0.0,76,0.00,,,0.00,WUHU216HW,2013-02-12 23:45:00,
2013-02-12 18:50:00,67.3,59.5,27.26,North,0,0.0,0.0,76,0.00,,,0.00,WUHU216HW,2013-02-12 23:50:00,
2013-02-12 18:55:00,67.3,59.5,27.23,North,0,0.0,0.0,76,0.00,,,0.00,WUHU216HW,2013-02-12 23:55:00,
2013-02-12 19:00:00,66.8,59.0,27.00,North,0,0.0,0.0,76,0.00,,,0.00,WUHU216HW,2013-02-13 00:00:00,
2013-02-12 19:05:00,66.8,59.0,27.14,North,0,0.0,0.0,76,0.00,,,0.00,WUHU216HW,2013-02-13 00:05:00,
2013-02-12 19:10:00,66.8,59.0,27.13,North,0,0.0,0.0,76,0.00,,,0.00,WUHU216HW,2013-02-13 00:10:00,
2013-02-12 19:15:00,66.8,59.0,27.15,North,0,0.0,0.0,76,0.00,,,0.00,WUHU216HW,2013-02-13 00:15:00,
2013-02-12 19:20:00,66.8,59.0,27.15,North,0,0.0,0.0,76,0.00,,,0.00,WUHU216HW,2013-02-13 00:20:00,
2013-02-12 19:25:00,66.8,59.0,27.15,North,0,0.0,0.0,76,0.00,,,0.00,WUHU216HW,2013-02-13 00:25:00,
2013-02-12 23:35:00,70.9,63.3,30.67,North,0,0.0,0.0,77,0.00,,,0.00,WUHU216HW,2013-02-13 04:35:00,
2013-02-12 23:40:00,70.9,63.3,30.67,North,0,0.0,0.0,77,0.00,,,0.00,WUHU216HW,2013-02-13 04:40:00,
2013-02-12 23:45:00,70.9,63.3,30.67,North,0,0.0,0.0,77,0.00,,,0.00,WUHU216HW,2013-02-13 04:45:00,
2013-02-12 23:50:00,71.1,63.1,30.67,North,0,0.0,0.0,76,0.00,,,0.00,WUHU216HW,2013-02-13 04:50:00,
2013-02-12 23:55:00,71.3,63.3,30.67,North,0,0.0,0.0,76,0.00,,,0.00,WUHU216HW,2013-02-13 04:55:00,